Wind_Speed
24 21 24 24 25 25 25 24 22 24 26 24 28 27 28 29 30 29 28 30 30 30 30 30 31 32 30 27 28 29 29 31 31 32 32 32 32 31
26 26 25 25 25 23 25 25 24 23 25 22 27 28 29 29 31 31 31 32 34 33 31 30 32 31 29 27 28 31 32 33 33 33 35 34 35 35
27 28 25 27 26 25 25 26 28 28 30 26 28 29 32 33 34 36 29 26 30 32 35 34 34 31 32 34 31 33 34 35 36 35 34 38 40 39
24 27 27 26 23 25 27 28 28 30 31 28 28 31 32 34 33 33 27 35 32 37 36 33 33 33 33 37 43 44 38 37 36 37 40 42 44 44
23 28 29 28 25 28 28 29 27 28 28 28 32 34 32 34 35 35 34 31 33 34 35 38 35 38 40 42 41 42 44 42 41 42 46 48 50 50
29 31 30 30 29 27 29 29 29 31 33 32 31 29 28 28 31 33 30 31 33 31 32 31 35 39 43 40 41 44 47 45 46 47 50 52 55 55
29 31 32 31 29 27 30 34 34 35 32 30 25 20 18 18 18 22 25 28 28 29 33 37 40 40 40 41 41 45 46 48 52 53 54 57 60 61
32 34 28 29 30 34 31 24 19 18 18 17 18 19 19 21 24 25 28 31 34 32 39 40 40 44 45 48 50 53 52 54 57 60 62 67 69 69
24 25 24 24 20 17 16 18 20 22 23 23 25 26 27 30 31 32 34 37 40 40 42 46 47 48 49 49 49 51 52 54 57 60 62 64 65 66
22 23 23 23 22 21 22 24 26 27 28 30 30 32 31 33 36 38 40 42 44 46 45 48 50 50 51 53 56 58 60 60 60 61 62 63 64 65
25 26 27 27 27 28 28 29 30 31 32 34 37 37 38 41 44 47 47 46 48 51 54 52 59 58 56 57 57 57 59 60 62 64 65 66 68 69
27 28 28 29 31 33 32 32 36 38 39 39 39 41 45 46 49 51 50 51 53 55 55 53 54 55 54 57 58 61 64 65 68 70 73 75 77 78
33 34 34 36 38 38 38 36 37 39 40 44 46 46 48 53 56 56 52 49 49 51 49 52 54 56 59 61 64 68 71 73 74 76 77 77 77 77
37 39 39 41 43 43 42 43 42 41 43 47 51 49 47 44 45 47 49 50 52 53 55 57 60 62 64 67 69 72 74 75 74 73 71 70 69 66
38 43 44 46 46 44 42 43 43 44 42 40 39 42 43 46 49 51 52 54 55 56 59 62 64 66 68 69 69 68 67 64 62 60 55 51 46 43
45 50 52 51 44 44 48 42 36 38 40 42 43 48 51 53 54 54 56 59 60 60 60 63 64 64 63 62 59 56 52 45 43 39 36 38 36 33
45 50 49 49 49 46 39 36 40 43 47 50 52 54 56 57 58 59 60 60 61 62 62 60 56 52 49 45 39 36 36 38 37 35 34 34 33 32
40 44 43 42 42 42 43 46 50 53 54 56 58 58 59 60 61 60 60 61 60 58 53 48 42 39 37 34 35 40 39 37 35 31 30 27 25 28
40 43 45 48 49 51 53 55 57 58 59 61 62 62 62 61 59 60 60 57 52 46 41 38 36 34 34 35 35 34 32 29 24 25 27 25 24 27
48 51 53 55 57 58 60 61 62 62 61 59 58 57 58 57 54 50 47 43 40 37 35 34 32 31 32 30 29 27 23 22 22 24 24 25 25 26
56 58 59 58 57 56 56 55 54 53 52 51 50 48 44 42 40 37 34 33 33 31 29 29 29 27 26 25 23 23 22 22 25 25 25 24 25 26
58 58 57 57 57 56 55 53 50 45 42 40 37 36 36 34 32 32 32 30 26 25 26 25 22 19 18 18 20 22 26 28 27 26 24 25 25 25
55 56 56 56 55 54 51 48 44 40 38 35 34 33 31 29 30 30 28 25 25 23 21 21 19 19 20 21 22 24 26 27 29 31 31 29 29 30
Wind_Direction
254 243 246 244 248 256 261 255 261 273 276 271 268 271 271 272 273 271 272 268 265 266 269 271 270 273 273 274 277 276 275 272 269 268 269 269 269 271
250 253 248 242 251 258 257 256 258 266 276 278 271 270 271 272 272 272 270 268 268 268 272 273 270 266 268 273 278 275 274 272 272 271 271 271 273 274
249 251 248 244 254 256 256 258 265 268 273 276 276 272 271 271 269 266 264 268 267 270 272 270 269 269 272 277 283 280 275 274 274 274 274 275 271 271
239 244 242 251 248 260 266 265 270 272 270 271 273 271 271 268 272 280 273 270 271 269 271 269 267 270 278 279 280 281 275 272 272 273 275 275 274 273
239 241 249 250 255 262 267 267 271 272 276 279 278 274 272 271 272 271 269 271 271 268 269 269 267 271 280 286 279 274 273 271 272 274 274 275 276 277
236 243 257 261 261 262 270 272 271 272 277 280 277 272 278 282 277 273 276 268 274 267 270 266 269 274 280 279 279 279 269 268 273 272 273 276 279 281
246 252 254 261 262 258 270 273 272 272 274 268 272 277 277 279 285 284 282 279 278 280 275 274 277 278 277 280 281 278 277 273 272 274 277 278 279 279
256 259 262 259 262 269 270 271 270 269 265 263 267 274 278 280 280 280 280 281 280 279 280 280 279 280 279 279 280 279 277 275 272 272 274 274 274 276
256 257 262 261 257 259 264 270 272 273 274 274 277 280 282 285 291 293 292 292 292 293 284 282 286 285 288 289 290 287 284 282 280 280 281 282 283 283
249 245 244 250 256 261 263 266 270 272 275 277 280 279 278 285 290 291 289 288 288 289 291 291 288 287 289 290 290 290 289 288 289 288 287 284 283 284
259 256 257 260 262 264 269 273 276 278 280 281 280 276 283 283 285 289 289 288 290 289 288 287 284 284 285 287 289 289 289 290 290 290 290 290 289 287
262 263 264 266 265 266 267 272 275 274 274 276 280 280 279 279 281 285 286 287 288 286 286 286 283 286 289 288 289 290 290 290 289 289 289 288 288 288
263 261 261 266 267 266 266 273 270 274 277 278 283 283 281 281 280 288 292 289 288 288 289 288 288 289 290 290 290 289 289 288 287 286 286 285 285 285
263 263 266 268 267 264 268 271 274 275 277 278 278 280 282 282 283 284 286 288 290 291 292 291 290 289 287 287 286 286 287 287 287 287 287 286 286 285
269 270 271 270 267 265 266 273 275 279 278 277 279 280 281 284 286 288 289 288 288 289 289 287 286 286 286 286 287 288 289 289 288 289 290 291 291 292
261 265 268 266 265 263 267 268 273 278 281 283 284 286 288 288 289 290 290 290 291 290 288 288 289 290 291 291 291 291 293 293 292 297 297 295 295 295
273 265 267 269 271 276 282 290 287 279 280 284 286 287 288 289 291 291 292 292 291 290 290 291 292 293 292 293 295 294 293 294 296 295 293 289 288 287
281 278 288 293 295 293 286 282 282 283 285 287 288 290 291 291 292 292 290 288 288 290 292 293 292 290 290 292 293 293 295 295 292 290 287 286 286 285
293 292 289 288 287 286 285 286 287 289 289 289 288 288 289 289 286 284 285 287 288 288 287 287 287 288 289 291 295 293 295 291 288 289 290 284 282 278
288 288 287 286 286 285 285 284 284 284 284 283 281 280 280 281 284 285 286 286 284 284 284 284 284 287 291 293 294 296 298 293 292 296 296 290 286 287
295 294 293 292 290 287 285 283 282 281 281 282 283 284 284 285 286 287 286 284 282 281 281 284 288 287 291 293 291 295 301 298 298 300 295 291 290 290
298 296 293 290 288 287 286 285 284 284 284 283 283 284 287 288 287 286 285 282 277 278 284 290 287 287 293 295 291 294 297 299 300 300 297 294 288 285
297 295 292 290 287 285 282 280 279 277 277 277 279 281 282 282 283 284 282 278 272 281 288 287 282 288 295 297 298 298 299 299 300 300 299 296 294 292
Height
5854 5854 5855 5858 5860 5861 5861 5862 5863 5862 5861 5864 5863 5862 5861 5861 5860 5860 5860 5859 5860 5860 5860 5860 5860 5860 5859 5858 5858 5858 5857 5857 5857 5856 5857 5858 5857 5858
5848 5850 5851 5853 5855 5856 5856 5857 5857 5857 5856 5857 5856 5856 5855 5854 5853 5853 5852 5852 5853 5853 5853 5852 5852 5852 5851 5851 5850 5850 5850 5849 5848 5848 5849 5848 5848 5848
5844 5845 5846 5848 5850 5851 5852 5852 5852 5852 5851 5851 5848 5848 5848 5847 5846 5845 5845 5845 5845 5845 5844 5844 5845 5845 5844 5843 5843 5842 5841 5841 5841 5840 5839 5840 5839 5838
5839 5840 5841 5843 5844 5846 5846 5846 5845 5844 5843 5841 5841 5839 5839 5838 5837 5837 5837 5837 5838 5838 5837 5837 5837 5837 5837 5836 5835 5834 5833 5832 5831 5831 5829 5829 5828 5826
5833 5835 5837 5837 5838 5838 5838 5838 5837 5836 5835 5834 5832 5831 5830 5830 5829 5828 5829 5829 5830 5830 5829 5828 5828 5828 5826 5825 5824 5823 5822 5821 5821 5819 5818 5816 5815 5813
5827 5829 5830 5830 5831 5830 5829 5829 5828 5828 5827 5826 5823 5822 5822 5821 5821 5821 5821 5820 5821 5820 5819 5819 5819 5818 5817 5814 5813 5811 5810 5809 5807 5806 5803 5801 5801 5799
5821 5822 5822 5823 5823 5822 5822 5821 5821 5819 5818 5817 5816 5816 5815 5815 5814 5814 5815 5813 5813 5812 5812 5811 5810 5808 5807 5803 5803 5801 5799 5797 5795 5793 5791 5789 5786 5783
5814 5815 5814 5815 5815 5816 5815 5815 5815 5814 5814 5813 5812 5811 5810 5809 5809 5808 5807 5806 5804 5806 5801 5799 5799 5796 5795 5792 5792 5788 5787 5784 5781 5779 5776 5772 5770 5767
5809 5810 5810 5810 5810 5810 5809 5809 5808 5807 5807 5806 5805 5804 5803 5802 5801 5799 5798 5796 5794 5792 5791 5788 5784 5783 5779 5778 5776 5772 5770 5768 5765 5762 5758 5754 5751 5748
5804 5804 5804 5804 5804 5803 5802 5802 5801 5800 5799 5798 5797 5795 5794 5792 5791 5789 5787 5784 5782 5779 5778 5775 5770 5768 5766 5762 5759 5756 5752 5749 5747 5743 5740 5736 5733 5729
5798 5798 5798 5797 5796 5796 5795 5794 5793 5792 5790 5789 5788 5786 5784 5782 5780 5777 5774 5772 5768 5765 5761 5765 5758 5754 5752 5747 5743 5741 5736 5733 5728 5724 5720 5716 5712 5708
5792 5791 5791 5790 5790 5788 5787 5786 5784 5782 5780 5778 5777 5774 5773 5770 5767 5764 5761 5758 5755 5752 5751 5747 5742 5739 5737 5730 5726 5721 5717 5714 5709 5704 5700 5694 5689 5684
5784 5783 5781 5780 5779 5778 5777 5774 5772 5770 5768 5766 5764 5761 5758 5756 5754 5750 5747 5744 5742 5737 5737 5732 5728 5724 5719 5715 5709 5703 5697 5692 5687 5682 5677 5674 5668 5664
5773 5772 5771 5769 5767 5765 5764 5762 5759 5757 5755 5754 5751 5749 5745 5743 5741 5739 5735 5731 5727 5723 5720 5716 5711 5707 5701 5696 5691 5684 5676 5669 5664 5658 5654 5648 5645 5642
5763 5762 5760 5758 5755 5753 5752 5749 5746 5745 5742 5739 5737 5736 5733 5731 5728 5724 5720 5717 5713 5709 5704 5700 5693 5687 5681 5675 5670 5663 5657 5649 5642 5638 5634 5629 5626 5624
5752 5749 5747 5745 5741 5739 5737 5735 5733 5732 5729 5727 5724 5723 5719 5715 5712 5708 5704 5700 5695 5689 5687 5679 5672 5665 5660 5655 5650 5645 5639 5634 5629 5626 5621 5616 5614 5612
5740 5737 5735 5732 5729 5726 5723 5721 5721 5718 5715 5712 5709 5706 5703 5699 5695 5691 5685 5680 5674 5668 5663 5660 5655 5647 5643 5641 5635 5632 5628 5623 5619 5617 5613 5608 5605 5603
5729 5726 5722 5719 5716 5714 5712 5710 5707 5703 5699 5696 5692 5688 5685 5681 5676 5671 5666 5661 5656 5651 5646 5642 5639 5635 5631 5630 5627 5620 5617 5613 5609 5607 5604 5601 5598 5595
5718 5715 5711 5708 5705 5701 5697 5694 5690 5685 5681 5678 5675 5671 5667 5662 5657 5652 5648 5644 5640 5636 5633 5630 5627 5624 5621 5618 5617 5612 5607 5605 5601 5599 5595 5593 5592 5588
5707 5702 5698 5694 5689 5685 5680 5676 5672 5668 5664 5659 5655 5651 5647 5643 5639 5636 5633 5629 5627 5624 5622 5619 5617 5614 5612 5609 5605 5602 5599 5597 5595 5592 5589 5586 5584 5580
5688 5683 5678 5673 5668 5663 5659 5655 5651 5647 5644 5640 5637 5634 5631 5629 5626 5623 5620 5617 5615 5613 5612 5610 5607 5605 5602 5599 5597 5594 5592 5591 5588 5586 5582 5579 5576 5573
5668 5663 5658 5653 5648 5643 5639 5636 5634 5631 5627 5624 5622 5621 5619 5617 5615 5612 5610 5607 5606 5605 5603 5601 5599 5597 5595 5592 5591 5588 5585 5582 5580 5577 5575 5572 5569 5566
5649 5642 5637 5631 5627 5623 5619 5617 5615 5614 5613 5611 5611 5609 5607 5606 5604 5602 5600 5599 5598 5597 5596 5594 5592 5590 5588 5586 5584 5581 5579 5575 5571 5567 5564 5563 5560 5556